2024/01/24 00:00:00, 6.7,-8.3
2024/01/24 00:10:00, 6.7,-7.9
2024/01/24 00:20:00, 6.6,-8.0
2024/01/24 00:30:00, 6.5,-8.2
2024/01/24 00:40:00, 6.6,-7.8
2024/01/24 00:50:00, 6.6,-8.0
2024/01/24 01:00:00, 6.6,-8.1
2024/01/24 01:10:00, 6.5,-7.9
2024/01/24 01:20:00, 6.5,-7.8
2024/01/24 01:30:00, 6.4,-7.8
2024/01/24 01:40:00, 6.4,-7.7
2024/01/24 01:50:00, 6.4,-7.6
2024/01/24 02:00:00, 6.3,-7.9
2024/01/24 02:10:00, 6.4,-8.1
2024/01/24 02:20:00, 6.4,-7.9
2024/01/24 02:30:00, 6.4,-7.8
2024/01/24 02:40:00, 6.3,-7.6
2024/01/24 02:50:00, 6.3,-7.7
2024/01/24 03:00:00, 6.4,-8.1
2024/01/24 03:10:00, 6.3,-7.8
2024/01/24 03:20:00, 6.4,-7.7
2024/01/24 03:30:00, 6.4,-7.8
2024/01/24 03:40:00, 6.4,-7.6
2024/01/24 03:50:00, 6.4,-7.3
2024/01/24 04:00:00, 6.4,-7.5
2024/01/24 04:10:00, 6.4,-7.4
2024/01/24 04:20:00, 6.4,-7.9
2024/01/24 04:30:00, 6.5,-7.7
2024/01/24 04:40:00, 6.5,-7.6
2024/01/24 04:50:00, 6.5,-7.6
2024/01/24 05:00:00, 6.5,-7.6
2024/01/24 05:10:00, 6.6,-7.6
2024/01/24 05:20:00, 7.0,-8.1
2024/01/24 05:30:00, 7.1,-7.7
2024/01/24 05:40:00, 7.1,-8.0
2024/01/24 05:50:00, 7.1,-7.5
2024/01/24 06:00:00, 7.0,-7.7
2024/01/24 06:10:00, 7.0,-7.8
2024/01/24 06:20:00, 7.1,-7.8
2024/01/24 06:30:00, 7.5,-7.6
2024/01/24 06:40:00, 7.6,-7.5
2024/01/24 06:50:00, 7.5,-7.8
2024/01/24 07:00:00, 7.5,-7.5
2024/01/24 07:10:00, 7.5,-7.7
2024/01/24 07:20:00, 7.4,-7.4
2024/01/24 07:30:00, 7.4,-7.6
2024/01/24 07:40:00, 7.5,-7.3
2024/01/24 07:50:00, 7.4,-7.2
2024/01/24 08:00:00, 7.5,-6.7
2024/01/24 08:10:00, 7.5,-6.6
2024/01/24 08:20:00, 7.5,-6.3
2024/01/24 08:30:00, 7.4,-6.0
2024/01/24 08:40:00, 7.6,-5.9
2024/01/24 08:50:00, 7.7,-5.8
2024/01/24 09:00:00, 7.5,-5.8
2024/01/24 09:10:00, 7.6,-5.2
2024/01/24 09:20:00, 7.4,-4.9
2024/01/24 09:30:00, 7.4,-4.3
2024/01/24 09:40:00, 7.6,-5.0
2024/01/24 09:50:00, 8.0,-4.6
2024/01/24 10:00:00, 8.0,-4.7
2024/01/24 10:10:00, 8.2,-4.6
2024/01/24 10:20:00, 8.3,-5.2
2024/01/24 10:30:00, 8.6,-5.6
2024/01/24 10:40:00, 8.8,-5.3
2024/01/24 10:50:00, 9.0,-5.6
2024/01/24 11:00:00, 9.3,-5.3
2024/01/24 11:10:00, 9.3,-5.6
2024/01/24 11:20:00, 9.6,-5.7
2024/01/24 11:30:00,10.0,-5.2
2024/01/24 11:40:00,10.3,-4.9
2024/01/24 11:50:00,10.4,-4.5
2024/01/24 12:00:00,10.2,-4.9
2024/01/24 12:10:00,10.0,-5.2
2024/01/24 12:20:00, 9.9,-5.1
2024/01/24 12:30:00,10.0,-5.3
2024/01/24 12:40:00,10.4,-5.5
2024/01/24 12:50:00,11.5,-6.0
2024/01/24 13:00:00,12.1,-5.7
2024/01/24 13:10:00,12.0,-5.3
2024/01/24 13:20:00,11.9,-5.0
2024/01/24 13:30:00,11.9,-5.2
2024/01/24 13:40:00,12.1,-5.4
2024/01/24 13:50:00,12.7,-5.8
2024/01/24 14:00:00,13.6,-5.7
2024/01/24 14:10:00,13.9,-5.5
2024/01/24 14:20:00,14.0,-6.0
2024/01/24 14:30:00,14.8,-5.5
2024/01/24 14:40:00,15.1,-5.6
2024/01/24 14:50:00,15.4,-4.9
2024/01/24 15:00:00,15.2,-5.0
2024/01/24 15:10:00,15.0,-4.9
2024/01/24 15:20:00,15.0,-5.6
2024/01/24 15:30:00,15.0,-5.6
2024/01/24 15:40:00,15.0,-5.8
2024/01/24 15:50:00,15.0,-5.7
2024/01/24 16:00:00,15.3,-5.9
2024/01/24 16:10:00,16.6,-6.1
2024/01/24 16:20:00,17.4,-6.2
2024/01/24 16:30:00,17.9,-5.8
2024/01/24 16:40:00,18.2,-6.2
2024/01/24 16:50:00,19.0,-6.2
2024/01/24 17:00:00,20.7,-6.1
2024/01/24 17:10:00,22.1,-5.9
2024/01/24 17:20:00,22.7,-6.2
2024/01/24 17:30:00,24.0,-6.3
2024/01/24 17:40:00,25.4,-6.2
2024/01/24 17:50:00,26.4,-6.5
2024/01/24 18:00:00,27.5,-6.2
2024/01/24 18:10:00,28.8,-6.2
2024/01/24 18:20:00,30.1,-6.2
2024/01/24 18:30:00,31.4,-6.2
2024/01/24 18:40:00,32.8,-6.2
2024/01/24 18:50:00,34.1,-6.1
2024/01/24 19:00:00,35.0,-6.2
2024/01/24 19:10:00,36.6,-6.2
2024/01/24 19:20:00,38.5,-6.2
2024/01/24 19:30:00,40.0,-6.2
2024/01/24 19:40:00,40.7,-6.2
2024/01/24 19:50:00,41.8,-6.2
2024/01/24 20:00:00,43.1,-6.2
2024/01/24 20:10:00,44.5,-6.2
2024/01/24 20:20:00,45.3,-6.2
2024/01/24 20:30:00,46.2,-6.2
2024/01/24 20:40:00,46.7,-6.1
2024/01/24 20:50:00,46.9,-6.0
2024/01/24 21:00:00,46.8,-6.1
2024/01/24 21:10:00,47.6,-6.1
2024/01/24 21:20:00,48.6,-6.1
2024/01/24 21:30:00,49.1,-5.9
2024/01/24 21:40:00,49.8,-6.0
2024/01/24 21:50:00,50.1,-5.8
2024/01/24 22:00:00,50.6,-5.8
2024/01/24 22:10:00,51.1,-5.9
2024/01/24 22:20:00,51.8,-5.9
2024/01/24 22:30:00,52.3,-5.8
2024/01/24 22:40:00,52.9,-6.0
2024/01/24 22:50:00,54.0,-5.9
2024/01/24 23:00:00,54.3,-6.0
2024/01/24 23:10:00,54.7,-5.8
2024/01/24 23:20:00,55.5,-5.8
2024/01/24 23:30:00,56.3,-5.8
2024/01/24 23:40:00,56.6,-5.7
2024/01/24 23:50:00,56.6,-5.7
